Temperature
15 15 15 15 15 15 16 16 17 18 18 17 16 15 15 15 15 14 14 14 14 14 14 14 14 14 14 14 14 14 14 14 14 14 14 14 14 14
15 15 15 15 15 15 15 15 15 16 17 17 16 16 15 15 14 14 14 14 14 14 14 14 14 14 14 14 14 14 14 14 14 14 14 14 14 14
14 14 15 14 15 15 15 15 15 15 16 16 16 15 14 14 14 14 14 14 14 14 14 14 14 14 14 14 14 14 14 14 14 14 14 14 14 14
15 15 15 14 14 15 14 14 15 14 15 15 15 15 14 14 14 14 14 14 14 14 14 14 14 14 14 14 14 14 14 14 14 14 14 14 14 14
15 15 15 14 14 14 14 14 14 14 14 14 15 15 14 14 13 14 14 14 14 14 14 14 14 14 14 14 14 14 14 14 14 13 13 13 13 13
15 14 14 14 14 14 14 14 14 14 14 14 14 14 14 14 14 14 14 14 14 14 14 14 14 14 14 14 14 14 14 14 13 13 13 13 13 13
14 14 14 14 14 14 14 14 14 14 14 14 14 14 14 14 14 14 14 14 14 14 14 14 14 14 14 13 14 14 14 14 13 13 13 13 13 13
14 14 14 14 14 14 14 14 14 13 14 14 14 14 14 14 13 13 13 14 14 14 13 13 14 13 13 13 13 13 13 13 13 13 13 13 13 13
14 14 14 14 14 14 14 14 14 14 14 13 13 13 13 13 13 13 13 13 13 13 13 13 13 13 13 13 13 13 13 13 13 13 13 13 13 13
14 14 14 14 13 13 13 13 13 13 13 13 13 13 13 13 13 12 12 12 12 12 12 12 13 13 13 13 13 13 13 13 13 13 13 13 13 13
14 14 13 13 13 13 13 13 13 13 13 13 13 13 13 12 12 12 12 11 12 12 12 12 12 12 12 13 13 12 12 12 12 12 12 12 12 12
13 13 13 13 13 13 12 12 12 12 12 12 12 12 12 12 12 11 11 11 11 12 12 12 12 12 12 12 12 12 12 12 12 12 12 12 12 11
13 13 13 12 12 12 12 12 11 11 11 11 11 11 11 11 11 11 11 10 10 11 11 11 11 11 11 11 12 12 12 11 11 11 11 11 11 11
12 12 12 12 12 11 11 11 11 11 11 10 10 10 10 10 10 10 10 10 10 10 10 10 10 10 10 10 11 11 11 11 11 11 11 11 11 11
11 11 11 11 11 11 10 10 10 10 10 10 10 10 10 10 10 10 10 9 9 9 9 9 9 9 9 9 10 10 10 10 10 11 11 11 11 11
11 10 10 10 10 10 10 10 10 9 9 9 9 10 10 9 9 9 9 9 9 9 9 9 9 9 9 9 9 9 9 10 10 10 10 10 10 10
10 10 10 10 10 10 10 10 9 9 9 9 9 9 9 9 9 9 9 9 9 9 9 9 9 9 9 8 8 9 9 9 9 9 9 9 10 10
10 10 10 10 10 9 9 9 9 9 9 9 8 8 8 8 8 8 8 8 8 8 8 8 8 8 8 8 8 8 9 9 9 9 9 9 9 10
9 10 10 9 9 9 9 9 9 9 8 8 8 8 8 8 8 8 8 7 8 8 8 8 8 8 8 8 9 9 8 8 8 8 8 9 9 9
9 9 9 9 9 9 9 9 8 8 8 8 8 8 7 7 7 7 7 7 7 7 7 7 7 7 7 7 8 8 8 8 8 8 8 8 8 9
9 9 9 9 8 8 8 8 8 7 7 7 7 7 7 7 7 7 7 7 6 6 7 7 7 7 6 6 6 7 8 8 7 7 7 7 8 8
9 8 8 8 8 8 8 7 7 7 7 7 7 6 6 6 6 6 6 6 6 6 6 6 6 6 6 6 6 6 7 7 7 7 7 7 7 8
8 7 7 7 7 7 7 7 7 7 6 6 6 6 6 6 5 5 5 5 6 6 5 5 6 6 6 6 6 6 6 7 7 7 8 8 8 8
Wind_Speed
7 7 6 4 5 4 4 5 6 6 5 5 6 5 5 6 4 7 7 7 8 9 10 10 10 10 11 11 12 12 12 12 12 12 12 12 13 14
6 5 6 6 5 5 5 5 6 7 7 3 5 5 4 6 6 8 9 8 13 13 12 12 12 13 13 13 13 14 14 14 14 14 14 14 14 14
8 8 8 7 6 6 6 6 6 6 7 6 5 4 5 7 6 8 10 10 11 15 14 14 14 15 15 15 15 15 16 16 16 16 16 16 16 16
10 9 9 8 8 8 7 7 7 6 7 8 6 6 7 8 7 8 10 10 11 10 13 14 16 17 17 17 17 18 18 17 18 18 18 18 18 18
10 10 10 9 9 8 8 8 7 7 7 8 8 6 7 7 7 9 10 9 12 11 13 17 18 18 18 19 19 19 19 19 19 19 19 19 19 19
10 10 10 11 11 10 9 10 9 8 8 9 9 8 7 7 7 8 9 8 9 10 10 11 14 18 20 21 21 22 22 21 21 20 20 21 21 21
11 11 12 11 10 9 9 10 10 9 9 9 9 9 8 7 8 8 9 9 9 9 9 10 10 12 14 20 24 24 23 22 22 22 22 22 22 22
11 11 11 12 12 12 12 11 10 11 11 10 10 10 9 9 8 8 9 10 10 8 8 10 10 11 11 14 13 16 20 22 22 22 23 23 23 23
10 10 10 10 11 12 13 14 14 14 13 13 13 12 11 9 8 10 10 11 11 10 9 12 12 13 12 14 13 14 18 21 22 23 24 24 24 24
10 10 11 11 10 10 11 12 12 13 13 13 12 12 10 8 7 9 11 12 13 12 11 13 13 13 12 13 14 17 20 22 23 24 24 24 24 24
10 10 10 11 8 7 10 11 11 10 10 11 10 10 9 9 9 8 10 11 12 12 9 11 12 12 13 13 14 18 21 22 23 24 25 24 24 22
7 7 7 7 5 6 9 10 11 9 8 7 8 10 11 12 13 11 11 11 11 11 9 9 11 11 13 12 11 11 13 18 23 25 26 26 24 19
5 5 4 6 6 6 7 8 8 6 6 8 8 9 9 9 10 10 10 11 12 12 10 9 11 12 13 14 13 12 12 12 13 16 22 25 25 20
5 4 2 3 6 7 7 6 5 5 7 8 8 9 9 9 8 9 10 12 13 14 14 13 12 13 14 15 15 14 13 13 13 14 14 16 21 25
2 1 1 3 5 6 8 8 7 7 7 8 9 9 9 8 8 8 10 12 14 16 16 16 14 14 14 16 16 15 15 15 14 14 14 14 14 14
2 2 4 5 5 5 5 6 6 7 7 8 8 9 8 8 9 9 10 10 11 12 13 15 15 15 15 16 15 16 15 15 15 15 15 15 15 15
2 3 4 4 4 5 5 6 6 7 8 9 9 9 9 9 9 9 9 11 12 13 13 11 12 12 15 15 15 16 16 16 15 14 14 16 16 15
3 5 5 5 5 6 6 6 7 8 8 8 9 9 10 10 10 10 10 11 12 12 12 12 11 11 13 14 14 17 16 16 15 14 15 16 17 16
6 6 6 6 6 7 7 8 8 8 7 8 9 10 10 10 10 11 11 11 12 12 12 11 11 12 15 16 14 12 14 15 15 15 15 15 17 16
6 7 7 7 7 8 8 8 8 8 8 9 9 10 10 10 11 11 11 13 13 13 13 13 13 13 14 16 16 15 14 15 15 16 15 15 15 16
7 7 7 8 8 8 9 9 9 9 10 10 10 11 11 11 11 12 12 14 13 14 14 14 13 13 13 13 15 16 15 13 14 15 16 16 16 16
8 8 8 9 9 9 9 9 10 10 10 10 11 11 11 11 12 14 13 13 12 13 15 14 13 12 12 14 16 18 18 16 15 18 20 19 16 16
8 9 9 9 9 9 9 10 11 10 10 11 10 10 11 11 11 12 13 13 13 14 14 14 13 12 13 14 15 16 19 18 15 15 15 16 21 23
Wind_Direction
214 209 229 226 233 240 247 257 264 261 242 209 227 215 225 236 200 239 246 208 227 243 249 254 258 261 262 263 263 263 263 262 261 260 259 258 258 254
223 222 228 230 223 232 238 244 257 270 272 247 225 234 236 252 210 241 252 222 234 238 244 250 256 259 261 261 261 261 262 262 261 259 258 258 258 258
215 214 220 236 234 231 230 238 243 251 260 262 244 234 233 260 251 253 257 255 250 220 229 245 253 257 259 260 260 259 259 261 261 260 258 257 256 256
220 220 221 218 223 242 240 240 244 251 257 265 260 245 232 243 252 259 262 258 267 225 221 241 250 254 256 258 258 257 257 258 259 259 258 258 257 256
225 223 224 223 223 229 235 241 241 238 243 256 257 254 250 244 249 252 257 260 266 252 225 233 242 247 251 253 254 254 255 256 257 258 258 258 257 257
229 228 229 227 226 229 231 237 244 247 242 250 257 253 249 245 249 259 261 250 258 269 264 255 241 238 244 247 249 250 251 253 254 256 257 257 257 258
227 229 231 232 234 235 240 234 233 239 245 246 253 256 252 251 255 260 267 271 263 263 267 266 257 252 247 241 241 245 246 248 251 254 256 257 257 258
231 231 232 226 228 229 245 255 255 246 249 254 257 258 260 260 261 266 271 273 276 269 268 271 272 272 268 265 252 235 237 243 248 252 255 257 258 258
234 236 241 234 221 232 229 231 242 246 247 254 261 264 267 268 271 269 268 274 278 284 283 277 276 274 272 269 251 241 242 245 248 251 254 255 256 257
237 239 243 248 239 235 240 238 239 239 236 238 250 259 267 276 271 270 277 274 270 266 261 269 275 276 277 273 252 237 241 246 249 251 253 254 254 254
240 240 242 243 228 219 241 248 248 247 239 233 242 256 271 273 269 268 268 271 274 275 265 268 276 280 281 278 266 238 235 242 247 250 251 252 253 255
240 241 236 236 225 212 239 248 251 252 256 248 242 248 253 250 237 239 254 264 271 277 274 268 274 281 282 277 275 272 254 246 243 245 246 247 247 253
247 245 235 192 218 227 241 253 259 267 264 261 258 256 253 250 244 238 242 254 264 269 279 280 278 277 277 281 280 277 275 273 263 254 246 242 240 238
258 265 266 179 215 229 236 245 251 257 259 257 257 258 259 259 259 259 257 258 260 266 275 277 274 275 278 280 282 282 277 274 272 270 268 254 238 233
266 308 295 210 223 233 228 227 231 244 251 256 260 263 265 267 269 266 262 257 257 260 262 260 262 268 268 272 277 279 281 280 275 271 270 268 264 257
251 223 211 220 233 251 243 230 238 250 256 261 268 272 275 273 269 271 272 272 273 273 264 260 259 263 266 269 273 275 276 277 277 277 274 271 267 264
265 255 252 247 245 247 251 252 252 250 252 259 268 272 273 274 276 278 278 278 276 279 282 278 268 262 262 267 271 273 275 276 275 276 275 273 269 266
268 262 263 262 264 265 264 262 259 261 263 268 271 274 277 279 280 280 278 276 276 278 280 283 283 280 275 269 253 268 274 277 279 277 275 273 272 269
258 268 271 273 275 275 274 274 274 272 274 274 275 276 277 278 277 277 277 276 276 277 279 282 282 280 279 279 274 253 273 280 281 279 275 271 271 271
266 279 283 283 282 283 283 284 283 282 275 273 276 279 280 279 278 278 278 278 281 283 282 280 278 277 278 284 288 285 265 271 278 278 277 277 274 271
283 282 283 284 284 284 284 284 282 280 280 282 281 281 280 279 278 280 281 282 280 280 281 281 283 284 283 283 281 281 279 263 262 269 277 279 279 278
299 297 295 294 294 293 292 289 286 284 283 281 282 284 285 285 284 283 283 284 283 282 285 286 288 285 280 278 280 283 286 284 270 253 251 255 266 271
307 306 304 301 298 294 291 292 291 289 288 288 288 289 289 288 286 285 284 283 283 285 287 289 290 288 284 281 281 283 284 285 283 279 271 252 242 249
Height
1561 1561 1562 1564 1565 1566 1567 1567 1568 1567 1567 1567 1568 1567 1567 1567 1566 1566 1566 1565 1564 1564 1563 1562 1562 1561 1560 1559 1559 1558 1558 1558 1557 1557 1557 1557 1557 1558
1558 1559 1560 1562 1562 1563 1564 1565 1565 1566 1565 1565 1565 1565 1564 1565 1563 1563 1562 1561 1560 1560 1559 1558 1558 1557 1556 1555 1555 1554 1554 1553 1553 1553 1552 1552 1552 1552
1555 1556 1557 1558 1559 1561 1561 1562 1562 1562 1562 1562 1562 1561 1560 1560 1560 1559 1559 1558 1558 1556 1555 1554 1553 1552 1552 1551 1550 1550 1549 1549 1548 1548 1548 1547 1547 1547
1552 1553 1554 1555 1555 1557 1558 1558 1559 1559 1559 1559 1559 1558 1556 1556 1555 1554 1555 1555 1554 1552 1550 1549 1548 1547 1547 1546 1545 1544 1544 1544 1543 1543 1542 1542 1542 1541
1549 1550 1550 1551 1552 1553 1553 1555 1555 1555 1555 1555 1555 1554 1553 1553 1551 1551 1550 1549 1549 1548 1546 1544 1543 1542 1541 1540 1539 1539 1538 1538 1537 1537 1536 1536 1535 1535
1545 1545 1546 1547 1548 1549 1549 1549 1550 1551 1551 1550 1550 1550 1549 1548 1547 1547 1546 1545 1544 1544 1542 1540 1538 1536 1535 1534 1533 1532 1532 1531 1530 1530 1529 1529 1529 1528
1540 1541 1541 1542 1543 1544 1545 1545 1546 1546 1546 1546 1546 1545 1545 1544 1544 1543 1542 1541 1539 1538 1537 1535 1534 1532 1530 1528 1526 1526 1525 1524 1523 1523 1522 1522 1521 1521
1535 1536 1536 1537 1537 1538 1539 1540 1540 1540 1541 1541 1540 1540 1539 1539 1538 1537 1537 1536 1534 1534 1532 1530 1529 1526 1525 1523 1522 1519 1518 1517 1516 1515 1514 1513 1513 1512
1530 1530 1532 1532 1532 1532 1532 1533 1533 1534 1534 1534 1534 1533 1533 1533 1532 1532 1531 1529 1528 1527 1525 1522 1522 1520 1518 1516 1514 1512 1511 1509 1508 1507 1506 1505 1504 1504
1524 1524 1525 1526 1526 1526 1526 1526 1526 1527 1527 1527 1526 1526 1527 1526 1525 1525 1523 1522 1519 1519 1518 1515 1514 1512 1510 1509 1506 1504 1502 1501 1500 1498 1497 1496 1495 1495
1518 1518 1518 1519 1519 1520 1520 1520 1520 1520 1520 1520 1519 1519 1519 1518 1518 1518 1517 1515 1513 1512 1511 1509 1506 1504 1503 1501 1499 1496 1494 1492 1491 1490 1489 1488 1487 1486
1512 1512 1512 1512 1512 1513 1513 1513 1513 1513 1513 1513 1512 1511 1511 1510 1510 1509 1509 1508 1506 1505 1504 1502 1500 1498 1495 1493 1492 1490 1487 1484 1483 1481 1480 1479 1478 1477
1507 1507 1507 1506 1506 1506 1506 1506 1506 1506 1506 1505 1505 1505 1504 1503 1503 1502 1501 1500 1499 1497 1497 1495 1493 1490 1488 1485 1484 1482 1480 1478 1476 1473 1472 1470 1470 1469
1501 1502 1501 1501 1500 1500 1500 1500 1500 1500 1499 1499 1499 1498 1498 1497 1496 1495 1494 1492 1491 1489 1488 1487 1485 1483 1480 1477 1475 1473 1472 1470 1468 1466 1464 1462 1461 1459
1496 1496 1496 1495 1495 1494 1494 1494 1493 1494 1494 1494 1493 1492 1491 1490 1488 1487 1485 1484 1482 1481 1480 1478 1476 1474 1473 1469 1466 1465 1463 1461 1459 1457 1455 1454 1452 1451
1493 1492 1491 1491 1491 1490 1490 1489 1489 1489 1488 1488 1487 1487 1485 1484 1482 1481 1479 1478 1476 1473 1472 1470 1468 1466 1464 1461 1459 1456 1454 1452 1450 1449 1446 1444 1442 1441
1490 1489 1489 1489 1488 1487 1486 1485 1485 1484 1483 1483 1482 1480 1479 1477 1476 1474 1472 1470 1468 1465 1464 1462 1460 1458 1455 1453 1450 1448 1446 1444 1441 1439 1437 1434 1432 1431
1488 1487 1487 1486 1485 1483 1482 1481 1480 1479 1478 1477 1475 1474 1472 1471 1469 1467 1466 1464 1461 1458 1456 1454 1452 1449 1447 1444 1443 1440 1437 1435 1433 1430 1428 1425 1422 1421
1486 1485 1484 1483 1481 1480 1479 1478 1476 1475 1473 1471 1469 1468 1466 1464 1462 1460 1458 1456 1454 1451 1449 1447 1444 1442 1439 1435 1433 1433 1429 1426 1423 1421 1419 1416 1413 1411
1483 1482 1481 1479 1478 1476 1475 1473 1471 1469 1467 1466 1464 1462 1460 1458 1456 1454 1451 1449 1447 1444 1442 1440 1438 1435 1432 1428 1424 1422 1421 1418 1415 1412 1410 1407 1404 1403
1480 1478 1477 1475 1473 1471 1469 1467 1465 1464 1462 1460 1458 1456 1454 1452 1449 1447 1445 1442 1440 1437 1434 1432 1430 1428 1424 1421 1416 1412 1411 1409 1406 1403 1401 1399 1396 1394
1476 1475 1473 1471 1469 1466 1464 1462 1460 1458 1456 1453 1451 1449 1447 1445 1442 1440 1438 1435 1432 1430 1427 1424 1422 1419 1416 1413 1408 1404 1401 1399 1397 1395 1392 1390 1388 1384
1472 1470 1468 1466 1464 1461 1459 1456 1454 1452 1450 1447 1445 1443 1440 1438 1435 1433 1431 1428 1425 1422 1420 1416 1414 1411 1408 1405 1401 1396 1393 1390 1388 1385 1383 1381 1379 1376